User: anonymous   Login
Location: Fort Wayne
(41.1310°N, 85.1290°W)
Time: 03:33:54
(UTC-05:00)
Language:

Cosmos 1980 - Orbit

View from above orbital plane
View from above orbital plane
View from above satellite
View from above satellite

Ground track
Ground track

The orbit data is extracted from the following two-line orbital elements,

1 19649U 88102A   15028.46645677 -.00000222  00000-0 -90754-4 0  9648
2 19649 071.0009 093.2429 0006387 221.2767 138.7873 14.14586008351438
Epoch (UTC): 28 January 2015 11:11:41
Eccentricity: 0.0006387
inclination: 71.0009°
perigee height: 839 km
apogee height: 848 km
right ascension of ascending node: 93.2429°
argument of perigee: 221.2767°
revolutions per day: 14.14586008
mean anomaly at epoch: 138.7873°
orbit number at epoch: 35143

The dashed part of the orbit path shows where the satellite is in the earth's shadow,  

DLR